Bangkok, Thaïlande

01:39 ICT le 20 février 2017 (GMT +0700)
Bangkok (Don Mueang)

Météorologie Historique pour VTBD - février, 2017

Change the Weather History Date:

vendredi, février 17, 2017

  Actual Average Record
Temperature  
Température moyenne 80 ° F -  
Température maximum 92 ° F 92 ° F 98 ° F (1998)
Température minimum 69 ° F 75 ° F 68 ° F (2001)
Cooling Degree Days 16    
Growing Degree Days 30 (Base 50)    
Moisture  
Point de rosée 62 ° F    
Average Humidity 52    
Maximum Humidity 83    
Minimum Humidity 23    
Précipitation  
Précipitation 0.00 pouce 0.03 pouce - ()
Pression au niveau de la mer  
Pression au niveau de la mer 29.94 pouce    
Vent  
Vitesse du vent 4 mph ()    
Vitesse maximum du vent 12 mph    
Max Gust Speed -    
Visibilité 5.6 Miles terrestres    
Evénements      
Averages and records for this station are not official NWS values.
T = Trace of Precipitation, MM = Missing Value Source: Averaged Metar Reports

Daily Weather History Graph

Daily Weather History Graph

Search for Another Location

Airport or City:

Trip Planner

Search our weather history database for the weather conditions in past years. The results will help you decide how hot, cold, wet, or windy it might be!

Date:

Astronomie

Feb. 17, 2017 Lever Coucher
Temps réel 06:40 ICT 18:23 ICT
Crépuscule civil 06:18 ICT 18:44 ICT
Crépuscule nautique 05:53 ICT 19:10 ICT
Crépuscule astronomique 05:28 ICT 19:35 ICT
Lune 23:42 ICT (2/17) 10:56 ICT (2/17)
Durée de lumière visible 12h 26m
Longueur du jour
11h 43m
Lune gibbeuse décroissante, 65% of the Moon is Illuminated
fév 17
Lune gibbeuse décroissante
fév 19
Dernier quartier
fév 26
Nouveau
Mar 5
Premier quartier
Mar 12
Pleine lune

Hourly Weather History & Observations

Heure (ICT) Température indice de chaleur Point de rosée Humidité Pression Visibilité Wind Dir Vitesse du vent Vitesse des rafales Precip Evénements Conditions météo
12:00 AM 78.8 ° F - 64.4 ° F 61% 29.95 pouce - Calme Calme - N/A   Ciel dégagé
12:30 AM 78.8 ° F - 68.0 ° F 69% 29.95 pouce - NNE 2.3 mph - N/A   Ciel dégagé
1:00 AM 78 ° F - 65 ° F 55% 29.95 pouce 6 mi Nord 3.5 mph - -   Ciel dégagé
1:00 AM 78.8 ° F - 66.2 ° F 65% 29.95 pouce - Nord 3.5 mph - N/A   Ciel dégagé
1:30 AM 77.0 ° F - 64.4 ° F 65% 29.95 pouce - Nord 2.3 mph - N/A   Ciel dégagé
2:00 AM 77.0 ° F - 66.2 ° F 69% 29.95 pouce 5.6 mi Calme Calme - N/A   Inconnu
2:30 AM 75.2 ° F - 66.2 ° F 73% 29.95 pouce 5.6 mi ENE 4.6 mph - N/A   Inconnu
3:00 AM 73.4 ° F - 66.2 ° F 78% 29.95 pouce 5.6 mi Variable 2.3 mph - N/A   Inconnu
3:30 AM 73.4 ° F - 66.2 ° F 78% 29.95 pouce 5.6 mi SSO 3.5 mph - N/A   Inconnu
4:00 AM 72 ° F - 65 ° F 74% 29.94 pouce 6 mi 2.3 mph - -   Brume
4:00 AM 71.6 ° F - 66.2 ° F 83% 29.95 pouce 5.6 mi Variable 2.3 mph - N/A   Inconnu
4:30 AM 73.4 ° F - 66.2 ° F 78% 29.95 pouce 5.6 mi Calme Calme - N/A   Inconnu
5:00 AM 71.6 ° F - 66.2 ° F 83% 29.95 pouce 5.0 mi Calme Calme - N/A   Inconnu
5:30 AM 71.6 ° F - 64.4 ° F 78% 29.95 pouce 5.0 mi Calme Calme - N/A   Inconnu
6:00 AM 69.8 ° F - 64.4 ° F 83% 29.95 pouce 5.0 mi SSE 3.5 mph - N/A   Inconnu
6:30 AM 71.6 ° F - 62.6 ° F 73% 29.98 pouce 5.0 mi ESE 3.5 mph - N/A   Inconnu
7:00 AM 73 ° F - 63 ° F 62% 29.99 pouce 6 mi ESE 5.8 mph - -   Brume
7:00 AM 73.4 ° F - 62.6 ° F 69% 29.98 pouce 5.6 mi ESE 5.8 mph - N/A   Inconnu
7:30 AM 75.2 ° F - 62.6 ° F 65% 30.01 pouce - ESE 4.6 mph - N/A   Ciel dégagé
8:00 AM 78.8 ° F - 60.8 ° F 54% 30.01 pouce - Est 2.3 mph - N/A   Ciel dégagé
8:30 AM 80.6 ° F 81.5 ° F 60.8 ° F 51% 30.01 pouce - Est 4.6 mph - N/A   Ciel dégagé
9:00 AM 80.6 ° F 81.5 ° F 60.8 ° F 51% 30.01 pouce - ENE 5.8 mph - N/A   Ciel dégagé
9:30 AM 82.4 ° F 82.9 ° F 60.8 ° F 48% 30.01 pouce - ENE 9.2 mph - N/A   Ciel dégagé
10:00 AM 84 ° F - 60 ° F 34% 30.02 pouce 6 mi Est 8.1 mph - -   Ciel dégagé
10:00 AM 84.2 ° F 84.4 ° F 60.8 ° F 45% 30.01 pouce - Est 8.1 mph - N/A   Ciel dégagé
10:30 AM 86.0 ° F 86.6 ° F 62.6 ° F 45% 30.01 pouce - ENE 6.9 mph - N/A   Ciel dégagé
11:00 AM 87.8 ° F 87.6 ° F 60.8 ° F 40% 30.01 pouce - Est 5.8 mph - N/A   Ciel dégagé
11:30 AM 87.8 ° F 87.1 ° F 59.0 ° F 38% 29.98 pouce - ENE 8.1 mph - N/A   Ciel dégagé
12:00 PM 89.6 ° F 88.9 ° F 59.0 ° F 36% 29.98 pouce - Est 6.9 mph - N/A   Ciel dégagé
12:30 PM 89.6 ° F 88.9 ° F 59.0 ° F 36% 29.95 pouce - ENE 11.5 mph - N/A   Ciel dégagé
1:00 PM 91 ° F - 59 ° F 24% 29.95 pouce 6 mi Est 6.9 mph - -   Nuages épars
1:00 PM 91.4 ° F 90.7 ° F 59.0 ° F 34% 29.95 pouce - Est 6.9 mph - N/A   Ciel dégagé
1:30 PM 91.4 ° F 91.4 ° F 60.8 ° F 36% 29.92 pouce - ENE 8.1 mph - N/A   Ciel dégagé
2:00 PM 91.4 ° F 89.9 ° F 57.2 ° F 31% 29.92 pouce - NE 11.5 mph - N/A   Ciel dégagé
2:30 PM 91.4 ° F 89.9 ° F 57.2 ° F 31% 29.89 pouce - Est 4.6 mph - N/A   Ciel dégagé
3:00 PM 93.2 ° F 92.6 ° F 59.0 ° F 32% 29.86 pouce - Variable 6.9 mph - N/A   Ciel dégagé
3:30 PM 93.2 ° F 92.6 ° F 59.0 ° F 32% 29.86 pouce - Variable 6.9 mph - N/A   Ciel dégagé
4:00 PM 92 ° F - 58 ° F 23% 29.86 pouce 6 mi 5.8 mph - -   Ciel dégagé
4:00 PM 91.4 ° F 89.9 ° F 57.2 ° F 31% 29.86 pouce - Variable 5.8 mph - N/A   Ciel dégagé
4:30 PM 91.4 ° F 90.7 ° F 59.0 ° F 34% 29.86 pouce - Variable 8.1 mph - N/A   Ciel dégagé
5:00 PM 91.4 ° F 90.7 ° F 59.0 ° F 34% 29.86 pouce - ENE 3.5 mph - N/A   Ciel dégagé
5:30 PM 91.4 ° F 90.7 ° F 59.0 ° F 34% 29.86 pouce - ESE 5.8 mph - N/A   Ciel dégagé
6:00 PM 91.4 ° F 90.7 ° F 59.0 ° F 34% 29.86 pouce - Est 4.6 mph - N/A   Ciel dégagé
7:00 PM 89 ° F - 58 ° F 25% 29.89 pouce 6 mi Calme Calme - -   Ciel dégagé
7:00 PM 89.6 ° F 88.9 ° F 59.0 ° F 36% 29.89 pouce - Calme Calme - N/A   Ciel dégagé
7:30 PM 86.0 ° F 86.6 ° F 62.6 ° F 45% 29.89 pouce - ONO 5.8 mph - N/A   Ciel dégagé
8:00 PM 86.0 ° F 86.6 ° F 62.6 ° F 45% 29.92 pouce - NNO 5.8 mph - N/A   Ciel dégagé
8:30 PM 86.0 ° F 86.6 ° F 62.6 ° F 45% 29.92 pouce - NO 6.9 mph - N/A   Ciel dégagé
9:00 PM 84.2 ° F 85.0 ° F 62.6 ° F 48% 29.95 pouce 5.6 mi NNO 4.6 mph - N/A   Inconnu
9:30 PM 82.4 ° F 83.4 ° F 62.6 ° F 51% 29.95 pouce 5.6 mi Sud 5.8 mph - N/A   Inconnu
10:00 PM 82 ° F - 63 ° F 43% 29.96 pouce 6 mi SSE 5.8 mph - -   Brume
10:00 PM 82.4 ° F 83.9 ° F 64.4 ° F 54% 29.95 pouce 5.6 mi SSE 5.8 mph - N/A   Inconnu
10:30 PM 80.6 ° F 82.7 ° F 66.2 ° F 61% 29.95 pouce 5.6 mi SSE 4.6 mph - N/A   Inconnu
11:00 PM 80.6 ° F 83.2 ° F 68.0 ° F 65% 29.98 pouce 5.6 mi Calme Calme - N/A   Inconnu
11:30 PM 78.8 ° F - 68.0 ° F 69% 29.98 pouce 5.6 mi Calme Calme - N/A   Inconnu